Вернуться в каталог

FENGYUN 1C DEB

АктивенPO
NORAD 36259·DEBRIS·🇨🇳 China

Запущен May 10, 1999 с Taiyuan Satellite Launch Center

Loading…

Ближайшие Пролёты (ближайшие 24 часа)

TLE

СвежийSource: Space-Track

Эпоха: Sep 12, 2026, 20:59 UTC

1 36259U 99025DWL 26255.87442830  .00007303  00000-0  14491-2 0  9990
2 36259  98.7980  41.9572 0004470 169.6654 345.2441 14.62516098761434

Отслеживайте FENGYUN 1C DEB в реальном времени с AllMySat

Download on the App Store